Regional Weather Roundup
Issued by NWS

Home | Current Version | Previous Version | Graphics & Text | Print | Product List | Glossary On
Versions: 1 2 3 4 5 6 7 8 9 10 11 12 13 14 15 16 17 18 19 20 21 22 23 24 25 26 27 28 29 30 31 32 33 34 35 36 37 38 39 40 41 42 43 44 45 46 47 48 49 50
130
ASUS43 KFSD 251810
RWRSD

WEATHER ROUNDUP FOR SOUTH DAKOTA
NATIONAL WEATHER SERVICE SIOUX FALLS SD
100 PM CDT WED MAY 25 2016

NOTE: "FAIR" INDICATES FEW OR NO CLOUDS BELOW 12,000 FEET WITH NO
SIGNIFICANT WEATHER AND/OR OBSTRUCTIONS TO VISIBILITY.


SDZ001>005-009-010-012>017-251900-
NORTHWEST AND NORTH CENTRAL SOUTH DAKOTA

CITY           SKY/WX    TMP DP  RH WIND       PRES   REMARKS
BUFFALO          N/A     61  44  53 NW25G32   29.80R
FAITH            N/A     68  49  50 W21G26    29.81S
MOBRIDGE       CLOUDY    69  54  58 W3        29.74S
$$

SDZ012>016-024>037-041>051-057-063-072>074-251900-
SOUTHWEST AND SOUTH CENTRAL SOUTH DAKOTA

CITY           SKY/WX    TMP DP  RH WIND       PRES   REMARKS
RAPID CTY ARPT PTSUNNY   64  52  64 N13G22    29.84S
PIERRE         SUNNY     71  57  61 NW12G20   29.77S
CUSTER         MOSUNNY   56  41  57 W13       29.94S
ELLSWORTH AFB  MOSUNNY   65  51  59 N17G25    29.84S
PHILIP         MOSUNNY   71  55  56 W15       29.81S
PINE RIDGE     SUNNY     70  47  43 W20G26    29.89S
WINNER         FAIR      72  59  63 W7        29.82S
$$

SDZ004>011-016>023-039-040-251900-
NORTHEAST SOUTH DAKOTA

CITY           SKY/WX    TMP DP  RH WIND       PRES   REMARKS
ABERDEEN       MOSUNNY   71  61  70 W12       29.74S
WATERTOWN      PTSUNNY   70  60  70 SW20G29   29.77R
BROOKINGS      CLOUDY    69  60  73 SW12      29.81S
SISSETON         N/A     68  61  78 S21G30    29.69F
$$

SDZ017-020-022-023-036>040-048>070-251900-
SOUTHEAST SOUTH DAKOTA

CITY           SKY/WX    TMP DP  RH WIND       PRES   REMARKS
SIOUX FALLS    PTSUNNY   72  60  66 SW7G17    29.82S
HURON          PTSUNNY   72  60  66 SW12      29.78R
CHAMBERLAIN    MOSUNNY   72  62  70 W9G16     29.82R
MITCHELL       PTSUNNY   73  61  65 SW7       29.81R
YANKTON        SUNNY     75  59  57 SW13G18   29.81F
$$

ABBREVIATIONS USED IN REMARKS
   TC - TEMPERATURE IN CELSIUS
  WCI - WIND CHILL INDEX
   HX - HEAT INDEX
  VSB - VISIBILITY





USA.gov is the U.S. government's official web portal to all federal, state and local government web resources and services.